[[{"header":{"parameterUnit":"m.s-1","parameterCategory":2,"la1":30.2991,"la2":30.254,"lo1":-89.0895,"lo2":-89.0444,"dy":0.0017,"dx":0.0017,"nx":28,"ny":28,"refTime":"2024-12-15T09:00:00:Z","depth":"0","parameterNumber":2,"parameterNumberName":"U-component_of_CURRENTS"},"data":[0,0,0,0,0,0,0,0,0,0,0,0,0,0,0,0,0,0,0,0,0,0,0,0,0,0,0,0,0,0,0,0,0,0,0,0,0,0,0,0,0,0,0,0,0,0,0,0,0,0,0,0,0,0,0,0,0,0,-0.3288,-0.3289,0,-0.332,-0.332,-0.332,-0.3277,-0.3276,-0.3274,-0.3273,-0.321,-0.321,-0.3209,0,0,0,0,0,0,0,0,0,0,0,0,0,-0.3185,-0.3187,-0.3288,-0.3289,-0.3289,-0.332,-0.332,-0.332,-0.3277,-0.3276,-0.3274,-0.3273,-0.321,-0.321,-0.3209,0,0,0,0,0,0,0,0,0,0,0,0,0,-0.3222,-0.3188,-0.3288,-0.3274,-0.3273,-0.332,-0.332,-0.332,-0.3277,-0.3275,-0.3274,-0.3272,-0.321,-0.321,-0.3209,-0.3243,0,0,-0.3207,-0.3206,0,0,0,0,0,0,0,0,-0.322,-0.3226,-0.3275,-0.3275,-0.3274,-0.3295,-0.3261,-0.3291,-0.3278,-0.3273,-0.3273,-0.3271,-0.3233,-0.323,-0.3238,-0.324,-0.3237,-0.3207,-0.3206,-0.3206,-0.3206,0,0,0,0,0,0,0,-0.3218,-0.3224,-0.3298,-0.3276,-0.3275,-0.3265,-0.3267,-0.3267,-0.3259,-0.3273,-0.3271,-0.328,-0.3231,-0.3239,-0.3236,-0.3236,-0.3207,-0.3206,-0.3206,-0.3205,-0.3244,-0.3245,0,0,0,0,0,0,-0.3223,-0.3222,-0.3297,-0.3299,-0.3245,-0.3268,-0.3271,-0.3288,-0.3261,-0.3257,-0.3281,-0.3277,-0.3241,-0.3237,-0.3233,-0.3256,-0.3206,-0.3205,-0.3205,-0.3242,-0.3244,-0.3246,0,0,0,0,0,0,-0.322,-0.3229,-0.3295,-0.3263,-0.3271,-0.3272,-0.3291,-0.329,-0.3288,-0.3269,-0.3262,-0.328,-0.3239,-0.3234,-0.3239,-0.3253,-0.3205,-0.3204,-0.3241,-0.3243,-0.3245,-0.3311,0,0,0,0,0,0,-0.3218,-0.3229,-0.3236,-0.3264,-0.3273,-0.3327,-0.3293,-0.3292,-0.3299,-0.3294,-0.3267,-0.3259,-0.3237,-0.324,-0.3238,-0.3251,-0.3204,-0.3239,-0.3242,-0.3244,-0.3307,-0.3315,-0.3322,0,0,0,0,0,-0.3214,-0.3237,-0.3236,-0.3245,-0.3285,-0.3329,-0.3333,-0.3325,-0.33,-0.3313,-0.3295,-0.3259,-0.3255,-0.3242,-0.3239,-0.3251,-0.3237,-0.3241,-0.3244,-0.3303,-0.3313,-0.3322,0,0,0,0,0,0,-0.319,-0.3236,-0.3235,-0.3268,-0.3298,-0.3323,-0.3332,-0.3329,-0.3327,-0.3314,-0.3284,-0.3277,-0.3284,-0.3267,-0.3252,-0.3272,-0.3239,-0.3242,-0.3285,-0.3294,-0.3301,-0.3303,-0.3203,0,0,0,0,0,-0.3193,-0.3219,-0.3261,-0.3283,-0.3302,-0.3316,-0.3329,-0.3332,-0.3339,-0.3335,-0.3319,-0.3303,-0.3301,-0.3295,-0.329,-0.3307,-0.3272,-0.3312,-0.332,-0.3326,-0.3327,-0.3297,-0.3302,-0.3256,-0.3256,-0.3256,0,0,-0.3186,-0.3215,-0.3227,-0.3279,-0.3296,-0.334,-0.3318,-0.3347,-0.3373,-0.333,-0.3346,-0.3329,-0.3312,-0.3328,-0.3329,-0.3311,-0.3323,-0.3331,-0.3336,-0.3333,-0.3301,-0.3305,-0.3309,-0.3259,-0.3258,-0.3258,0,0,-0.3199,-0.3217,-0.3249,-0.3286,-0.3328,-0.3348,-0.3359,-0.3392,-0.3393,-0.342,-0.3391,-0.3387,-0.3386,-0.3378,-0.3372,-0.3422,-0.3364,-0.3418,-0.3456,-0.3428,-0.343,-0.3432,-0.3396,-0.3394,-0.3421,-0.3421,-0.3421,0,-0.3186,-0.3234,-0.3263,-0.3312,-0.3338,-0.3356,-0.3398,-0.342,-0.3446,-0.3446,-0.343,-0.3425,-0.341,-0.3422,-0.3442,-0.3437,-0.3407,-0.3421,-0.3436,-0.3437,-0.3438,-0.3399,-0.3397,-0.3425,-0.3424,-0.3424,-0.3424,0,-0.3229,-0.327,-0.3294,-0.3359,-0.3396,-0.3433,-0.3479,-0.3501,-0.3499,-0.3509,-0.3516,-0.3502,-0.349,-0.3494,-0.3485,-0.3493,-0.3465,-0.3447,-0.3408,-0.3446,-0.3404,-0.3399,-0.343,-0.3429,-0.3428,-0.3427,0,0,-0.318,-0.33,-0.3303,-0.334,-0.3421,-0.3451,-0.3507,-0.355,-0.3563,-0.3579,-0.3585,-0.3594,-0.3568,-0.3562,-0.3544,-0.3532,-0.352,-0.35,-0.3497,-0.3456,-0.3448,-0.3354,-0.334,-0.3501,-0.3501,-0.3501,-0.3415,0,-0.3194,-0.3286,-0.3344,-0.3414,-0.346,-0.3508,-0.3555,-0.3595,-0.3611,-0.3625,-0.3614,-0.3613,-0.3601,-0.3587,-0.3578,-0.3538,-0.3512,-0.3544,-0.3424,-0.342,-0.3326,-0.3333,-0.3201,-0.3107,-0.3411,-0.341,-0.341,0,-0.3203,-0.3264,-0.3341,-0.3436,-0.3458,-0.3501,-0.3552,-0.36,-0.364,-0.3649,-0.3653,-0.3641,-0.364,-0.3613,-0.3559,-0.3578,-0.3518,-0.3481,-0.3476,-0.336,-0.3318,-0.3119,-0.3087,-0.3057,-0.3403,-0.3403,-0.3404,0,-0.3131,-0.3251,-0.3303,-0.3339,-0.3456,-0.3481,-0.3529,-0.3587,-0.3612,-0.3652,-0.3654,-0.3659,-0.3633,-0.3593,-0.3527,-0.354,-0.3446,-0.3447,-0.33,-0.3293,-0.3141,-0.312,-0.3055,-0.3384,-0.3384,-0.3384,-0.3384,0,-0.311,-0.3144,-0.327,-0.3295,-0.3336,-0.3435,-0.3467,-0.3519,-0.358,-0.3589,-0.3643,-0.3632,-0.3623,-0.3574,-0.3526,-0.3394,-0.3436,-0.3299,-0.3262,-0.316,-0.3143,-0.3078,-0.3102,-0.3381,-0.3382,-0.3382,-0.3383,0,-0.3009,-0.3104,-0.3158,-0.3273,-0.3303,-0.3321,-0.3419,-0.3437,-0.3518,-0.3531,-0.354,-0.3591,-0.3533,-0.3501,-0.342,-0.3356,-0.3196,-0.3199,-0.3078,-0.3028,-0.2871,-0.2904,-0.2786,-0.2711,-0.3033,-0.303,-0.3028,0,-0.2964,-0.2986,-0.3099,-0.3114,-0.3158,-0.3213,-0.3242,-0.3369,-0.3394,-0.3485,-0.347,-0.3458,-0.3389,-0.3263,-0.3177,-0.3057,-0.3053,-0.2863,-0.2863,-0.2834,-0.2845,-0.2871,-0.2821,-0.269,-0.2685,-0.2681,-0.2678,0,-0.2847,-0.2887,-0.2925,-0.2968,-0.3002,-0.3046,-0.3105,-0.3125,-0.3255,-0.327,-0.3265,-0.3225,-0.3145,-0.2974,-0.2854,-0.2778,-0.2793,-0.2773,-0.2768,-0.2589,-0.2586,-0.2505,-0.2787,-0.2641,-0.2645,-0.2648,-0.265,-0.2651,-0.2722,-0.2716,-0.2766,-0.2785,-0.2824,-0.2832,-0.2804,-0.2884,-0.2892,-0.2881,-0.2986,-0.2883,-0.2814,-0.2629,-0.2558,-0.2415,-0.2504,-0.2343,-0.239,-0.2424,-0.2336,-0.2536,-0.2338,-0.234,-0.2342,-0.2343,-0.2344,0,-0.2553,-0.2567,-0.2578,-0.2594,-0.2553,-0.2642,-0.2666,-0.2603,-0.2541,-0.2589,-0.2549,-0.2477,-0.2312,-0.2284,-0.2165,-0.2064,-0.2037,-0.203,-0.2049,-0.2018,-0.2194,-0.2162,-0.1885,-0.1885,-0.1885,-0.1885,-0.1885,-0.1885,-0.2464,-0.2413,-0.2427,-0.231,-0.2308,-0.2196,-0.2164,-0.2107,-0.21,-0.2001,-0.1994,-0.2042,-0.2038,-0.2134,-0.199,-0.1901,-0.1873,-0.1807,-0.186,-0.2012,-0.2047,-0.2079,-0.2054,-0.1759,-0.1758,-0.1602,-0.1601,-0.16]},{"header":{"parameterUnit":"m.s-1","parameterCategory":2,"la1":30.2991,"la2":30.254,"lo1":-89.0895,"lo2":-89.0444,"dy":0.0017,"dx":0.0017,"nx":28,"ny":28,"refTime":"2024-12-15T09:00:00:Z","depth":"0","parameterNumber":3,"parameterNumberName":"V-component_of_CURRENTS"},"data":[0,0,0,0,0,0,0,0,0,0,0,0,0,0,0,0,0,0,0,0,0,0,0,0,0,0,0,0,0,0,0,0,0,0,0,0,0,0,0,0,0,0,0,0,0,0,0,0,0,0,0,0,0,0,0,0,0,0,-0.0317,-0.0316,0,-0.0213,-0.0211,-0.021,-0.0138,-0.0138,-0.0138,-0.0137,0.0003,0.0006,0.001,0,0,0,0,0,0,0,0,0,0,0,0,0,-0.0397,-0.0396,-0.0317,-0.0316,-0.0315,-0.0213,-0.0211,-0.0209,-0.0138,-0.0138,-0.0138,-0.0137,0.0002,0.0006,0.001,0,0,0,0,0,0,0,0,0,0,0,0,0,-0.0333,-0.0396,-0.0318,-0.0269,-0.0264,-0.0213,-0.0211,-0.0209,-0.0139,-0.0138,-0.0138,-0.0137,0.0001,0.0006,0.0011,0.0033,0,0,0.0026,0.0029,0,0,0,0,0,0,0,0,-0.0337,-0.033,-0.0277,-0.0272,-0.0266,-0.019,-0.0188,-0.0127,-0.0139,-0.0184,-0.0137,-0.0137,-0.006,-0.005,-0.0029,0.0039,0.0045,0.0027,0.003,0.0032,0.0034,0,0,0,0,0,0,0,-0.0341,-0.0333,-0.0274,-0.0276,-0.0269,-0.0232,-0.0223,-0.0176,-0.0124,-0.018,-0.0175,-0.0167,-0.0056,-0.0034,-0.0025,0.0047,0.0027,0.0031,0.0034,0.0036,0.0168,0.0169,0,0,0,0,0,0,-0.0362,-0.0338,-0.0277,-0.0271,-0.0303,-0.0232,-0.0221,-0.0213,-0.0125,-0.0112,-0.0167,-0.0164,-0.0043,-0.0031,-0.002,0.0017,0.0032,0.0037,0.004,0.0168,0.0168,0.0169,0,0,0,0,0,0,-0.0364,-0.0357,-0.0281,-0.0304,-0.0292,-0.0232,-0.0223,-0.0211,-0.019,-0.0116,-0.0102,-0.0159,-0.0042,-0.0027,0.0024,0.0023,0.0039,0.0044,0.0167,0.0168,0.0168,0.0088,0,0,0,0,0,0,-0.0367,-0.0359,-0.0363,-0.0305,-0.0291,-0.0262,-0.0223,-0.021,-0.0187,-0.0182,-0.0104,-0.009,-0.004,0.0015,0.0029,0.0031,0.0048,0.0167,0.0168,0.0168,0.009,0.0086,0.0082,0,0,0,0,0,-0.037,-0.0384,-0.0364,-0.0357,-0.0298,-0.0263,-0.0252,-0.0206,-0.0188,-0.0184,-0.0126,-0.0093,0.003,0.002,0.0035,0.0039,0.0166,0.0167,0.0168,0.0092,0.0086,0.0082,0,0,0,0,0,0,-0.0422,-0.0376,-0.0354,-0.0352,-0.0315,-0.0252,-0.0248,-0.0214,-0.0166,-0.0161,-0.0088,-0.0071,-0.0027,0.0018,0.0005,0.0081,0.0104,0.0108,0.0041,0.0036,0.0032,0.0012,0.0052,0,0,0,0,0,-0.0437,-0.0433,-0.038,-0.038,-0.0366,-0.0308,-0.0289,-0.0258,-0.0207,-0.0185,-0.0129,-0.0066,-0.0011,0.0021,0.0073,0.0112,0.0163,0.0127,0.0123,0.0119,0.0114,0.0186,0.0188,0.0172,0.0172,0.0172,0,0,-0.0458,-0.0432,-0.043,-0.0391,-0.0358,-0.0346,-0.0295,-0.0275,-0.0258,-0.0178,-0.0141,-0.0083,-0.0004,0.0041,0.0065,0.0079,0.0152,0.012,0.0116,0.0113,0.0188,0.0189,0.019,0.0172,0.0172,0.0172,0,0,-0.0507,-0.0476,-0.0492,-0.0464,-0.0425,-0.0384,-0.0383,-0.0323,-0.029,-0.0248,-0.0184,-0.0125,-0.0046,0.0016,0.0056,0.0062,0.0123,0.0078,0.0045,0.0115,0.0117,0.0119,0.0186,0.0194,0.008,0.008,0.008,0,-0.0536,-0.0542,-0.0491,-0.0497,-0.0481,-0.0407,-0.0416,-0.037,-0.03,-0.0269,-0.025,-0.0116,-0.0056,0.0017,0.0019,0.0052,0.0099,0.0053,0.0108,0.0111,0.0115,0.0183,0.0193,0.0076,0.0077,0.0077,0.0077,0,-0.0592,-0.0594,-0.0602,-0.058,-0.0554,-0.055,-0.0482,-0.0448,-0.0399,-0.0342,-0.0267,-0.0177,-0.0097,-0.0066,-0.0022,0.0036,0.0064,0.0088,0.0113,0.0111,0.0184,0.0196,0.0071,0.0072,0.0073,0.0074,0,0,-0.0661,-0.0647,-0.0648,-0.0652,-0.0598,-0.0584,-0.0549,-0.049,-0.046,-0.0381,-0.0333,-0.0233,-0.0177,-0.0127,-0.0057,0.0008,0.0073,0.0048,0.0054,0.0102,0.0226,0.0282,0.0302,0.0103,0.0104,0.0106,0.0267,0,-0.072,-0.0762,-0.0724,-0.0744,-0.0757,-0.0674,-0.0646,-0.0578,-0.0502,-0.0434,-0.0323,-0.0254,-0.02,-0.0163,-0.0091,0.0038,0.0101,0.0027,0.0233,0.0239,0.0278,0.0316,0.0356,0.0506,0.0279,0.0282,0.0283,0,-0.0784,-0.0803,-0.0848,-0.0827,-0.0821,-0.0813,-0.0743,-0.0706,-0.0583,-0.0522,-0.0426,-0.0333,-0.0216,-0.0181,0.0028,-0.0023,0.0084,0.0181,0.019,0.0278,0.0318,0.0475,0.0538,0.0687,0.0303,0.0301,0.03,0,-0.0867,-0.088,-0.0921,-0.0917,-0.0882,-0.0875,-0.0842,-0.0739,-0.0697,-0.0575,-0.0528,-0.0374,-0.0288,-0.0138,0.0066,0.0045,0.03,0.0301,0.0453,0.0458,0.0552,0.0563,0.0774,0.0431,0.0431,0.0431,0.043,0,-0.0945,-0.0971,-0.0967,-0.099,-0.102,-0.0958,-0.095,-0.0886,-0.0785,-0.0725,-0.0587,-0.0497,-0.0275,-0.0097,0.0063,0.0314,0.0304,0.046,0.051,0.0526,0.0532,0.0714,0.076,0.0437,0.0435,0.0434,0.0433,0,-0.1029,-0.1028,-0.1074,-0.1067,-0.1067,-0.1086,-0.1038,-0.1016,-0.0913,-0.0828,-0.0794,-0.0573,-0.0327,-0.0093,0.0188,0.0323,0.0653,0.0627,0.0632,0.068,0.0935,0.0973,0.123,0.1328,0.0815,0.0817,0.0819,0,-0.1075,-0.1114,-0.1148,-0.118,-0.1182,-0.1194,-0.1192,-0.1098,-0.1059,-0.0859,-0.082,-0.0565,-0.0352,0.0085,0.0374,0.0683,0.0786,0.0878,0.0842,0.0974,0.1053,0.1073,0.1137,0.0941,0.0943,0.0946,0.0948,0,-0.1157,-0.1171,-0.1209,-0.1286,-0.1311,-0.1324,-0.1306,-0.1292,-0.115,-0.1033,-0.0819,-0.0627,-0.019,0.0206,0.0599,0.0779,0.0993,0.0935,0.1084,0.1184,0.121,0.1319,0.0802,0.0969,0.0967,0.0965,0.0964,0.0963,-0.1202,-0.1257,-0.1312,-0.1376,-0.141,-0.1426,-0.1418,-0.135,-0.125,-0.1022,-0.0833,-0.048,0.0051,0.0629,0.083,0.1241,0.1187,0.1351,0.1392,0.1404,0.1486,0.101,0.1218,0.1218,0.1217,0.1217,0.1216,0,-0.1251,-0.1311,-0.1391,-0.1455,-0.1497,-0.1491,-0.1463,-0.1395,-0.1251,-0.0995,-0.0732,-0.0081,0.0437,0.0901,0.1469,0.1682,0.1717,0.1787,0.1828,0.1876,0.1483,0.1475,0.1733,0.1733,0.1733,0.1732,0.1732,0.1732,-0.1276,-0.1367,-0.1413,-0.1502,-0.1539,-0.154,-0.151,-0.1366,-0.117,-0.0721,-0.0314,0.0013,0.0668,0.1543,0.205,0.2096,0.2261,0.2249,0.2342,0.2061,0.2022,0.1986,0.1992,0.2354,0.2355,0.2727,0.2731,0.2733]}],[{"header":{"parameterUnit":"m.s-1","parameterCategory":2,"la1":30.2991,"la2":30.254,"lo1":-89.0895,"lo2":-89.0444,"dy":0.0017,"dx":0.0017,"nx":28,"ny":28,"refTime":"2024-12-15T09:00:00:Z","depth":"2","parameterNumber":2,"parameterNumberName":"U-component_of_CURRENTS"},"data":[0,0,0,0,0,0,0,0,0,0,0,0,0,0,0,0,0,0,0,0,0,0,0,0,0,0,0,0,0,0,0,0,0,0,0,0,0,0,0,0,0,0,0,0,0,0,0,0,0,0,0,0,0,0,0,0,0,0,-0.2817,-0.2817,0,-0.2852,-0.2852,-0.2852,-0.2826,-0.2825,-0.2824,-0.2824,-0.2787,-0.2787,-0.2786,0,0,0,0,0,0,0,0,0,0,0,0,0,-0.2728,-0.273,-0.2816,-0.2817,-0.2818,-0.2852,-0.2852,-0.2852,-0.2826,-0.2825,-0.2824,-0.2823,-0.2787,-0.2787,-0.2786,0,0,0,0,0,0,0,0,0,0,0,0,0,-0.2763,-0.273,-0.2816,-0.2811,-0.2811,-0.2851,-0.2852,-0.2852,-0.2827,-0.2825,-0.2824,-0.2823,-0.2787,-0.2787,-0.2786,-0.2812,0,0,-0.2786,-0.2786,0,0,0,0,0,0,0,0,-0.2761,-0.2766,-0.2811,-0.2811,-0.2812,-0.2835,-0.2807,-0.2836,-0.2827,-0.2818,-0.2824,-0.2822,-0.2799,-0.2798,-0.2805,-0.281,-0.2809,-0.2786,-0.2786,-0.2785,-0.2785,0,0,0,0,0,0,0,-0.2759,-0.2764,-0.2828,-0.2812,-0.2812,-0.2807,-0.2811,-0.2813,-0.2812,-0.2819,-0.2818,-0.2826,-0.2798,-0.2805,-0.2803,-0.2808,-0.2786,-0.2785,-0.2785,-0.2785,-0.2834,-0.2835,0,0,0,0,0,0,-0.2761,-0.2762,-0.2827,-0.2829,-0.2785,-0.281,-0.2814,-0.2827,-0.2814,-0.2812,-0.2827,-0.2825,-0.2806,-0.2804,-0.2802,-0.2833,-0.2785,-0.2785,-0.2785,-0.2832,-0.2834,-0.2836,0,0,0,0,0,0,-0.2759,-0.2767,-0.2825,-0.2798,-0.2805,-0.2813,-0.2829,-0.2829,-0.2834,-0.2822,-0.2817,-0.2833,-0.2805,-0.2802,-0.2814,-0.2831,-0.2785,-0.2785,-0.2831,-0.2833,-0.2835,-0.2894,0,0,0,0,0,0,-0.2757,-0.2766,-0.2774,-0.2798,-0.2807,-0.2855,-0.283,-0.283,-0.2843,-0.284,-0.2825,-0.282,-0.2804,-0.2815,-0.2814,-0.283,-0.2785,-0.2829,-0.2832,-0.2834,-0.289,-0.2898,-0.2904,0,0,0,0,0,-0.2754,-0.2773,-0.2774,-0.2782,-0.2818,-0.2857,-0.2861,-0.2859,-0.2844,-0.2857,-0.2849,-0.2821,-0.2831,-0.2817,-0.2815,-0.2831,-0.2828,-0.2831,-0.2834,-0.2887,-0.2896,-0.2904,0,0,0,0,0,0,-0.2735,-0.2773,-0.2774,-0.2803,-0.283,-0.2853,-0.2864,-0.2866,-0.2872,-0.2864,-0.2843,-0.2839,-0.2854,-0.2841,-0.2826,-0.2854,-0.2823,-0.2826,-0.2864,-0.2873,-0.288,-0.2881,-0.2785,0,0,0,0,0,-0.2738,-0.2758,-0.2796,-0.2815,-0.2832,-0.2849,-0.2862,-0.2868,-0.2879,-0.288,-0.2873,-0.2867,-0.287,-0.2869,-0.2869,-0.2889,-0.2859,-0.2898,-0.2905,-0.2911,-0.2912,-0.289,-0.2895,-0.2846,-0.2846,-0.2846,0,0,-0.2733,-0.2757,-0.2767,-0.2812,-0.2829,-0.2867,-0.2852,-0.2882,-0.2907,-0.2876,-0.2899,-0.2892,-0.2881,-0.2902,-0.2907,-0.289,-0.291,-0.2915,-0.292,-0.2918,-0.2894,-0.2899,-0.2903,-0.2848,-0.2848,-0.2847,0,0,-0.2742,-0.276,-0.2785,-0.2818,-0.2858,-0.2877,-0.2888,-0.2922,-0.2929,-0.296,-0.2941,-0.2946,-0.2954,-0.2951,-0.2949,-0.2997,-0.2948,-0.2997,-0.3033,-0.3012,-0.3015,-0.3018,-0.2984,-0.2983,-0.3,-0.3,-0.3,0,-0.2733,-0.2771,-0.2797,-0.2838,-0.2862,-0.2884,-0.2921,-0.2945,-0.2976,-0.2983,-0.2973,-0.2985,-0.2977,-0.2994,-0.3015,-0.3011,-0.2986,-0.2999,-0.3019,-0.3021,-0.3023,-0.2988,-0.2986,-0.3003,-0.3003,-0.3003,-0.3002,0,-0.2766,-0.28,-0.282,-0.2876,-0.291,-0.2944,-0.2989,-0.3016,-0.3024,-0.3039,-0.3058,-0.3054,-0.3054,-0.306,-0.3055,-0.3069,-0.3044,-0.3029,-0.2994,-0.3031,-0.2992,-0.2989,-0.3008,-0.3007,-0.3006,-0.3005,0,0,-0.2724,-0.2822,-0.2826,-0.2857,-0.2931,-0.2959,-0.3014,-0.3059,-0.3079,-0.3104,-0.312,-0.3138,-0.3125,-0.3123,-0.3113,-0.3106,-0.3101,-0.3081,-0.3078,-0.304,-0.3045,-0.2952,-0.294,-0.3088,-0.3088,-0.3088,-0.3012,0,-0.2733,-0.2806,-0.2856,-0.2917,-0.2956,-0.3006,-0.3052,-0.3097,-0.3122,-0.3148,-0.3148,-0.3159,-0.3153,-0.315,-0.3147,-0.3116,-0.3097,-0.3123,-0.3021,-0.3017,-0.2924,-0.2934,-0.2728,-0.2635,-0.3008,-0.3008,-0.3007,0,-0.2737,-0.2786,-0.2849,-0.2933,-0.2954,-0.2996,-0.3056,-0.3104,-0.3154,-0.3173,-0.319,-0.3189,-0.3198,-0.3178,-0.3138,-0.3155,-0.3106,-0.3076,-0.3071,-0.2961,-0.2919,-0.266,-0.2615,-0.3002,-0.3002,-0.3002,-0.3003,0,-0.2673,-0.2774,-0.2817,-0.2849,-0.2953,-0.2981,-0.303,-0.3096,-0.3127,-0.3182,-0.3195,-0.321,-0.3198,-0.3167,-0.3114,-0.3126,-0.305,-0.3049,-0.2914,-0.2906,-0.2697,-0.267,-0.3001,-0.3001,-0.3001,-0.3002,-0.3002,0,-0.265,-0.268,-0.279,-0.2811,-0.2851,-0.2944,-0.2984,-0.3039,-0.3108,-0.3126,-0.3191,-0.3188,-0.3194,-0.3156,-0.3114,-0.2997,-0.304,-0.2914,-0.2879,-0.2712,-0.2689,-0.2983,-0.2982,-0.2999,-0.2999,-0.3,-0.3,0,-0.2561,-0.2642,-0.2688,-0.2792,-0.2821,-0.2844,-0.2944,-0.2968,-0.3058,-0.3083,-0.3098,-0.3158,-0.3112,-0.3092,-0.3026,-0.2967,-0.2886,-0.2826,-0.2627,-0.2571,-0.2759,-0.2762,-0.2676,-0.2672,-0.2669,-0.2666,-0.2664,0,-0.2519,-0.2536,-0.2637,-0.2652,-0.2693,-0.2752,-0.2784,-0.291,-0.294,-0.3041,-0.303,-0.3035,-0.2972,-0.2864,-0.2784,-0.2674,-0.2766,-0.2423,-0.241,-0.2749,-0.2725,-0.2734,-0.2741,-0.2153,-0.2147,-0.2142,-0.2138,0,-0.2412,-0.2449,-0.2481,-0.252,-0.2556,-0.2598,-0.2661,-0.268,-0.2811,-0.283,-0.2828,-0.2792,-0.273,-0.2529,-0.2426,-0.2345,-0.2436,-0.2314,-0.2694,-0.228,-0.2253,-0.2231,-0.2256,-0.2092,-0.2096,-0.21,-0.2102,-0.2104,-0.2304,-0.2295,-0.2337,-0.2353,-0.2395,-0.2401,-0.2372,-0.2447,-0.2451,-0.244,-0.2543,-0.2423,-0.2411,-0.2138,-0.2028,-0.1964,-0.2129,-0.2032,-0.2049,-0.2072,-0.2037,-0.2007,-0.1792,-0.1794,-0.1797,-0.1799,-0.1801,0,-0.2152,-0.2158,-0.2165,-0.2176,-0.2141,-0.2228,-0.2245,-0.2178,-0.2107,-0.2144,-0.2103,-0.1865,-0.1736,-0.1744,-0.1573,-0.1539,-0.1538,-0.1476,-0.1476,-0.1521,-0.1562,-0.1503,-0.1115,-0.1113,-0.1111,-0.111,0,0,-0.2073,-0.2017,-0.202,-0.1908,-0.191,-0.1805,-0.1769,-0.17,-0.1682,-0.155,-0.15,-0.1623,-0.1668,-0.1387,-0.1328,-0.1193,-0.1344,-0.1132,-0.1679,-0.1722,-0.176,-0.1874,-0.1834,0,0,0,0,0]},{"header":{"parameterUnit":"m.s-1","parameterCategory":2,"la1":30.2991,"la2":30.254,"lo1":-89.0895,"lo2":-89.0444,"dy":0.0017,"dx":0.0017,"nx":28,"ny":28,"refTime":"2024-12-15T09:00:00:Z","depth":"2","parameterNumber":3,"parameterNumberName":"V-component_of_CURRENTS"},"data":[0,0,0,0,0,0,0,0,0,0,0,0,0,0,0,0,0,0,0,0,0,0,0,0,0,0,0,0,0,0,0,0,0,0,0,0,0,0,0,0,0,0,0,0,0,0,0,0,0,0,0,0,0,0,0,0,0,0,-0.0309,-0.0309,0,-0.0222,-0.022,-0.0219,-0.0156,-0.0156,-0.0155,-0.0155,-0.0031,-0.0028,-0.0025,0,0,0,0,0,0,0,0,0,0,0,0,0,-0.0372,-0.0372,-0.0309,-0.0308,-0.0308,-0.0222,-0.022,-0.0219,-0.0156,-0.0156,-0.0155,-0.0155,-0.0032,-0.0029,-0.0025,0,0,0,0,0,0,0,0,0,0,0,0,0,-0.0319,-0.0372,-0.031,-0.0267,-0.0263,-0.0222,-0.022,-0.0219,-0.0156,-0.0156,-0.0155,-0.0155,-0.0033,-0.0029,-0.0025,-0.0008,0,0,-0.0011,-0.0009,0,0,0,0,0,0,0,0,-0.0322,-0.0317,-0.0274,-0.027,-0.0265,-0.0201,-0.0197,-0.0147,-0.0156,-0.0195,-0.0155,-0.0154,-0.0086,-0.0077,-0.006,-0.0002,0.0003,-0.0011,-0.0008,-0.0006,-0.0005,0,0,0,0,0,0,0,-0.0326,-0.032,-0.0273,-0.0273,-0.0268,-0.0236,-0.0228,-0.0187,-0.0142,-0.0191,-0.0187,-0.018,-0.0083,-0.0064,-0.0057,0.0005,-0.0011,-0.0007,-0.0004,-0.0002,0.0108,0.0108,0,0,0,0,0,0,-0.0344,-0.0324,-0.0276,-0.027,-0.0295,-0.0235,-0.0226,-0.022,-0.0143,-0.0132,-0.0181,-0.0178,-0.0072,-0.0062,-0.0052,-0.0019,-0.0006,-0.0002,0.0001,0.0107,0.0108,0.0108,0,0,0,0,0,0,-0.0346,-0.0341,-0.0279,-0.0296,-0.0287,-0.0235,-0.0229,-0.0219,-0.0201,-0.0136,-0.0124,-0.0174,-0.0071,-0.0058,-0.0015,-0.0014,0.0,0.0004,0.0107,0.0107,0.0108,0.0042,0,0,0,0,0,0,-0.0348,-0.0342,-0.0346,-0.0298,-0.0286,-0.0264,-0.0229,-0.0218,-0.0199,-0.0194,-0.0126,-0.0114,-0.007,-0.0022,-0.0011,-0.0008,0.0008,0.0107,0.0107,0.0108,0.0044,0.004,0.0037,0,0,0,0,0,-0.035,-0.0363,-0.0347,-0.0341,-0.0294,-0.0265,-0.0256,-0.0216,-0.0199,-0.0197,-0.0146,-0.0116,-0.0011,-0.0019,-0.0005,-0.0001,0.0106,0.0107,0.0108,0.0045,0.0041,0.0037,0,0,0,0,0,0,-0.0395,-0.0356,-0.0338,-0.0339,-0.0308,-0.0255,-0.0252,-0.0223,-0.0182,-0.0178,-0.0114,-0.0098,-0.0061,-0.0021,-0.0031,0.0034,0.0053,0.0056,0.0001,-0.0003,-0.0006,-0.0021,0.0011,0,0,0,0,0,-0.0408,-0.0406,-0.0362,-0.0363,-0.0352,-0.0303,-0.0288,-0.0261,-0.0217,-0.0199,-0.0149,-0.0095,-0.0048,-0.002,0.0025,0.0059,0.0104,0.0072,0.0069,0.0065,0.0063,0.013,0.0132,0.011,0.011,0.011,0,0,-0.0426,-0.0405,-0.0404,-0.0373,-0.0345,-0.0336,-0.0292,-0.0276,-0.0262,-0.0192,-0.016,-0.011,-0.0042,-0.0003,0.0018,0.0031,0.0096,0.0066,0.0063,0.0062,0.013,0.0133,0.0134,0.011,0.011,0.011,0,0,-0.0467,-0.0443,-0.0457,-0.0435,-0.0403,-0.0369,-0.0368,-0.0318,-0.029,-0.0255,-0.0198,-0.0146,-0.008,-0.0024,0.0011,0.0016,0.007,0.0028,0.0004,0.0068,0.007,0.0073,0.013,0.0138,0.0031,0.0031,0.0031,0,-0.0493,-0.05,-0.0457,-0.0463,-0.0451,-0.0389,-0.0398,-0.0359,-0.03,-0.0272,-0.0256,-0.014,-0.0088,-0.0022,-0.0019,0.0008,0.0049,0.0011,0.0062,0.0066,0.0069,0.0128,0.0138,0.0028,0.0028,0.0028,0.0029,0,-0.0541,-0.0545,-0.0552,-0.0535,-0.0515,-0.0513,-0.0455,-0.0427,-0.0385,-0.0336,-0.027,-0.0191,-0.012,-0.0093,-0.0055,0.0001,0.0023,0.0044,0.0068,0.0067,0.0129,0.0141,0.0023,0.0024,0.0025,0.0026,0,0,-0.06,-0.059,-0.0592,-0.0598,-0.0554,-0.0543,-0.0514,-0.0465,-0.044,-0.037,-0.0327,-0.0237,-0.0186,-0.0143,-0.008,-0.0019,0.0042,0.0016,0.0021,0.0064,0.0181,0.0214,0.023,0.007,0.0071,0.0073,0.0212,0,-0.0651,-0.0691,-0.0659,-0.068,-0.0693,-0.0624,-0.0601,-0.0543,-0.0479,-0.0419,-0.0317,-0.0257,-0.0206,-0.0172,-0.0104,0.0009,0.007,0.0002,0.0183,0.0189,0.0211,0.0243,0.0208,0.0331,0.0224,0.0225,0.0227,0,-0.0707,-0.0726,-0.0768,-0.0755,-0.0752,-0.0747,-0.0692,-0.0661,-0.0553,-0.0501,-0.0412,-0.0328,-0.0219,-0.0185,0.0004,-0.0042,0.0057,0.0143,0.0151,0.0213,0.0243,0.0317,0.0357,0.0247,0.0245,0.0244,0.0242,0,-0.078,-0.0796,-0.0835,-0.0833,-0.0808,-0.0804,-0.0778,-0.0691,-0.0658,-0.0549,-0.0508,-0.0367,-0.0289,-0.0149,0.0033,0.0018,0.0242,0.0247,0.0372,0.0376,0.0398,0.0401,0.0372,0.0372,0.0371,0.0371,0.0371,0,-0.0849,-0.0875,-0.0877,-0.09,-0.0932,-0.088,-0.0879,-0.0826,-0.0741,-0.0695,-0.0562,-0.0486,-0.0277,-0.0118,0.0028,0.0246,0.0244,0.0379,0.042,0.0375,0.0373,0.0339,0.0333,0.0376,0.0375,0.0374,0.0373,0,-0.0923,-0.0925,-0.0971,-0.0971,-0.0973,-0.0995,-0.0962,-0.0948,-0.0859,-0.0793,-0.0762,-0.0561,-0.0345,-0.0129,0.0125,0.0246,0.0442,0.0515,0.0446,0.0477,0.053,0.0519,0.0664,0.0667,0.0669,0.0671,0.0672,0,-0.0964,-0.1001,-0.104,-0.1072,-0.1078,-0.1096,-0.1101,-0.1024,-0.0995,-0.083,-0.0798,-0.0574,-0.0391,-0.0003,0.0253,0.0528,0.0521,0.064,0.0606,0.0537,0.0563,0.0549,0.0536,0.0612,0.0613,0.0614,0.0614,0,-0.1038,-0.1053,-0.109,-0.1169,-0.1199,-0.1219,-0.1212,-0.1206,-0.1091,-0.0996,-0.082,-0.0658,-0.0278,0.0042,0.0391,0.054,0.0591,0.0662,0.0634,0.0535,0.0498,0.0519,0.0506,0.062,0.062,0.0619,0.0619,0.0619,-0.108,-0.113,-0.1186,-0.1251,-0.1292,-0.1317,-0.1317,-0.1267,-0.1191,-0.1007,-0.0852,-0.0557,-0.0273,0.025,0.0477,0.069,0.0688,0.0732,0.0726,0.072,0.0681,0.0649,0.0792,0.0793,0.0793,0.0793,0.0794,0,-0.1125,-0.1181,-0.1258,-0.1326,-0.1373,-0.1375,-0.1363,-0.1308,-0.1196,-0.0994,-0.078,-0.0416,-0.0061,0.0237,0.058,0.0769,0.074,0.0792,0.0711,0.0704,0.0698,0.0654,0.0761,0.0761,0.0762,0.0762,0,0,-0.1149,-0.1232,-0.1275,-0.1368,-0.1411,-0.1426,-0.1408,-0.129,-0.1129,-0.0894,-0.0658,-0.038,-0.0022,0.0207,0.044,0.0615,0.0605,0.0626,0.0634,0.0503,0.0495,0.065,0.0574,0,0,0,0,0]}],[{"header":{"parameterUnit":"m.s-1","parameterCategory":2,"la1":30.2991,"la2":30.254,"lo1":-89.0895,"lo2":-89.0444,"dy":0.0017,"dx":0.0017,"nx":28,"ny":28,"refTime":"2024-12-15T09:00:00:Z","depth":"4","parameterNumber":2,"parameterNumberName":"U-component_of_CURRENTS"},"data":[0,0,0,0,0,0,0,0,0,0,0,0,0,0,0,0,0,0,0,0,0,0,0,0,0,0,0,0,0,0,0,0,0,0,0,0,0,0,0,0,0,0,0,0,0,0,0,0,0,0,0,0,0,0,0,0,0,0,-0.1938,-0.1939,0,-0.2012,-0.2013,-0.2013,-0.2056,-0.2057,-0.2057,-0.2057,-0.2115,-0.2116,-0.2118,0,0,0,0,0,0,0,0,0,0,0,0,0,-0.1835,-0.1836,-0.1937,-0.1939,-0.194,-0.2012,-0.2013,-0.2013,-0.2056,-0.2057,-0.2057,-0.2057,-0.2115,-0.2116,-0.2118,0,0,0,0,0,0,0,0,0,0,0,0,0,-0.1889,-0.1837,-0.1937,-0.1971,-0.1975,-0.2012,-0.2013,-0.2014,-0.2056,-0.2057,-0.2057,-0.2058,-0.2114,-0.2116,-0.2118,-0.2119,0,0,-0.2124,-0.2124,0,0,0,0,0,0,0,0,-0.1886,-0.1893,-0.1965,-0.1969,-0.1973,-0.2027,-0.1998,-0.2049,-0.2056,-0.2023,-0.2057,-0.2058,-0.2085,-0.2089,-0.21,-0.2122,-0.2125,-0.2124,-0.2125,-0.2126,-0.2126,0,0,0,0,0,0,0,-0.1882,-0.189,-0.1965,-0.1966,-0.1971,-0.1983,-0.1991,-0.2008,-0.2049,-0.2026,-0.203,-0.2041,-0.2087,-0.2098,-0.2101,-0.2126,-0.2124,-0.2125,-0.2127,-0.2127,-0.2235,-0.2237,0,0,0,0,0,0,-0.1876,-0.1887,-0.1963,-0.1968,-0.1932,-0.1985,-0.1994,-0.2008,-0.2049,-0.2057,-0.204,-0.2043,-0.2095,-0.2099,-0.2104,-0.2184,-0.2126,-0.2127,-0.2128,-0.2233,-0.2235,-0.2237,0,0,0,0,0,0,-0.1874,-0.1883,-0.196,-0.193,-0.1941,-0.1986,-0.2001,-0.2009,-0.2052,-0.206,-0.2067,-0.2079,-0.2095,-0.2101,-0.2152,-0.2184,-0.2128,-0.213,-0.2231,-0.2234,-0.2236,-0.2297,0,0,0,0,0,0,-0.1871,-0.1881,-0.1904,-0.193,-0.1942,-0.2003,-0.2001,-0.201,-0.2057,-0.2061,-0.2095,-0.21,-0.2096,-0.2149,-0.2154,-0.2186,-0.2131,-0.2229,-0.2232,-0.2235,-0.2292,-0.2301,-0.2308,0,0,0,0,0,-0.1867,-0.1891,-0.1905,-0.1915,-0.1968,-0.2004,-0.2013,-0.2044,-0.2058,-0.2084,-0.2112,-0.21,-0.2173,-0.2152,-0.2157,-0.219,-0.2227,-0.2231,-0.2235,-0.2289,-0.2299,-0.2308,0,0,0,0,0,0,-0.1861,-0.1899,-0.1914,-0.1951,-0.1986,-0.2013,-0.2044,-0.2064,-0.2106,-0.212,-0.2125,-0.2132,-0.2185,-0.2183,-0.216,-0.2232,-0.2197,-0.2202,-0.2236,-0.2246,-0.2254,-0.2249,-0.2133,0,0,0,0,0,-0.1869,-0.1898,-0.1934,-0.1966,-0.1987,-0.2022,-0.2047,-0.2071,-0.2104,-0.2125,-0.2151,-0.2177,-0.22,-0.2221,-0.2239,-0.2282,-0.2256,-0.2306,-0.2314,-0.2321,-0.2321,-0.2312,-0.2319,-0.225,-0.225,-0.225,0,0,-0.1876,-0.1901,-0.192,-0.1967,-0.1997,-0.2036,-0.2039,-0.2089,-0.2127,-0.2124,-0.2193,-0.2209,-0.2218,-0.2265,-0.2288,-0.2271,-0.2327,-0.2326,-0.2331,-0.2328,-0.2317,-0.2323,-0.2329,-0.2253,-0.2252,-0.2252,0,0,-0.1892,-0.1929,-0.1956,-0.1991,-0.2045,-0.2067,-0.2089,-0.214,-0.2173,-0.2233,-0.2239,-0.2277,-0.2322,-0.2332,-0.234,-0.2404,-0.2368,-0.2417,-0.2456,-0.2448,-0.2453,-0.2457,-0.2428,-0.2429,-0.2422,-0.2423,-0.2423,0,-0.1903,-0.1938,-0.1971,-0.2009,-0.2042,-0.2085,-0.2125,-0.2165,-0.2229,-0.2254,-0.2266,-0.2334,-0.2348,-0.2387,-0.2416,-0.242,-0.2404,-0.2417,-0.2457,-0.246,-0.2463,-0.2433,-0.2433,-0.2426,-0.2425,-0.2425,-0.2425,0,-0.1928,-0.1974,-0.1996,-0.2055,-0.2096,-0.214,-0.2194,-0.2248,-0.2293,-0.2322,-0.2386,-0.2409,-0.2443,-0.246,-0.2462,-0.2499,-0.2476,-0.2464,-0.2427,-0.2473,-0.2439,-0.2438,-0.2431,-0.243,-0.2429,-0.2428,0,0,-0.19,-0.1995,-0.2006,-0.2043,-0.2126,-0.2157,-0.2233,-0.2295,-0.2339,-0.2403,-0.2449,-0.2502,-0.2515,-0.2525,-0.2533,-0.2539,-0.2552,-0.2523,-0.2521,-0.2484,-0.2523,-0.236,-0.2343,-0.2549,-0.255,-0.255,-0.2487,0,-0.1911,-0.198,-0.2029,-0.2104,-0.2142,-0.2212,-0.2271,-0.2338,-0.2395,-0.2453,-0.2485,-0.2532,-0.2539,-0.2563,-0.2572,-0.2561,-0.2554,-0.2569,-0.2491,-0.2489,-0.233,-0.2338,-0.2552,-0.2486,-0.2486,-0.2486,-0.2486,0,-0.1908,-0.1957,-0.2028,-0.2123,-0.2148,-0.2205,-0.23,-0.2362,-0.2447,-0.2491,-0.2543,-0.2567,-0.2605,-0.2597,-0.259,-0.2602,-0.257,-0.255,-0.2547,-0.2371,-0.2324,-0.2432,-0.2483,-0.2483,-0.2484,-0.2484,-0.2484,0,-0.1845,-0.1951,-0.2008,-0.2043,-0.2158,-0.2211,-0.2278,-0.2373,-0.2421,-0.2517,-0.255,-0.2597,-0.2618,-0.2604,-0.2577,-0.259,-0.254,-0.2543,-0.2359,-0.2347,-0.2487,-0.2483,-0.2517,-0.2517,-0.2518,-0.2518,-0.2518,0,-0.1811,-0.186,-0.1992,-0.202,-0.2088,-0.2187,-0.2264,-0.2338,-0.2435,-0.2467,-0.2563,-0.2572,-0.2623,-0.2603,-0.2575,-0.2449,-0.2532,-0.2353,-0.2316,-0.2514,-0.2514,-0.2485,-0.2482,-0.2515,-0.2516,-0.2516,-0.2517,0,-0.1719,-0.1812,-0.1881,-0.2014,-0.2059,-0.2108,-0.2244,-0.2285,-0.2401,-0.2446,-0.2475,-0.2556,-0.2524,-0.2532,-0.2495,-0.2415,-0.2333,-0.2265,-0.2462,-0.2439,-0.2149,-0.215,-0.2052,-0.2046,-0.204,-0.2036,-0.2032,0,-0.1673,-0.1702,-0.1849,-0.1885,-0.1951,-0.2047,-0.2098,-0.2244,-0.2279,-0.2398,-0.2387,-0.2419,-0.2441,-0.2243,-0.2292,-0.2201,-0.2177,-0.2124,-0.2152,-0.2125,-0.21,-0.211,-0.2119,-0.2024,-0.2022,-0.2021,-0.2019,0,-0.1569,-0.164,-0.1692,-0.1768,-0.1839,-0.1901,-0.199,-0.1997,-0.2138,-0.2271,-0.2218,-0.2191,-0.2146,-0.2112,-0.205,-0.1996,-0.2159,-0.2068,-0.2079,-0.2105,-0.2089,-0.2072,-0.2087,-0.2001,-0.2003,-0.2005,-0.2006,0,-0.1485,-0.1494,-0.1572,-0.1618,-0.1701,-0.1711,-0.1788,-0.1814,-0.1868,-0.201,-0.1981,-0.2022,-0.2105,-0.2002,-0.1949,-0.1879,-0.1858,-0.1802,-0.1827,-0.1848,-0.1813,-0.1765,-0.1529,0,0,0,0,0,-0.1388,-0.1375,-0.1409,-0.1451,-0.1525,-0.1566,-0.1684,-0.1766,-0.1907,-0.1806,-0.1888,-0.1836,-0.1769,-0.1802,-0.1683,-0.1862,-0.1868,-0.1719,-0.1819,-0.1897,-0.1919,-0.1898,0,0,0,0,0,0,-0.1322,-0.1345,-0.135,-0.1292,-0.1286,-0.1344,-0.1408,-0.1511,-0.1472,-0.1622,-0.1587,-0.1711,-0.1667,-0.1784,-0.1635,-0.1644,-0.1666,-0.1765,-0.1759,-0.1885,-0.1905,-0.1922,-0.1908,0,0,0,0,0]},{"header":{"parameterUnit":"m.s-1","parameterCategory":2,"la1":30.2991,"la2":30.254,"lo1":-89.0895,"lo2":-89.0444,"dy":0.0017,"dx":0.0017,"nx":28,"ny":28,"refTime":"2024-12-15T09:00:00:Z","depth":"4","parameterNumber":3,"parameterNumberName":"V-component_of_CURRENTS"},"data":[0,0,0,0,0,0,0,0,0,0,0,0,0,0,0,0,0,0,0,0,0,0,0,0,0,0,0,0,0,0,0,0,0,0,0,0,0,0,0,0,0,0,0,0,0,0,0,0,0,0,0,0,0,0,0,0,0,0,-0.0226,-0.0226,0,-0.0174,-0.0173,-0.0172,-0.0131,-0.013,-0.013,-0.013,-0.004,-0.0038,-0.0036,0,0,0,0,0,0,0,0,0,0,0,0,0,-0.0256,-0.0256,-0.0226,-0.0226,-0.0225,-0.0174,-0.0173,-0.0172,-0.0131,-0.013,-0.013,-0.013,-0.0041,-0.0039,-0.0036,0,0,0,0,0,0,0,0,0,0,0,0,0,-0.0226,-0.0256,-0.0226,-0.0199,-0.0197,-0.0174,-0.0173,-0.0172,-0.0131,-0.013,-0.013,-0.013,-0.0042,-0.0039,-0.0036,-0.0024,0,0,-0.0026,-0.0024,0,0,0,0,0,0,0,0,-0.0228,-0.0225,-0.0204,-0.0201,-0.0198,-0.016,-0.0151,-0.0121,-0.0131,-0.0154,-0.013,-0.0129,-0.0078,-0.0072,-0.0061,-0.002,-0.0016,-0.0026,-0.0024,-0.0022,-0.0021,0,0,0,0,0,0,0,-0.023,-0.0227,-0.0204,-0.0203,-0.02,-0.0178,-0.0174,-0.0145,-0.0117,-0.0152,-0.0149,-0.0146,-0.0076,-0.0065,-0.0059,-0.0015,-0.0026,-0.0023,-0.0021,-0.002,0.0057,0.0057,0,0,0,0,0,0,-0.0242,-0.0229,-0.0206,-0.0202,-0.0214,-0.0178,-0.0173,-0.0171,-0.0118,-0.0111,-0.0146,-0.0144,-0.007,-0.0063,-0.0055,-0.0032,-0.0022,-0.0019,-0.0017,0.0057,0.0057,0.0057,0,0,0,0,0,0,-0.0243,-0.024,-0.0208,-0.0215,-0.021,-0.0179,-0.0176,-0.017,-0.0161,-0.0115,-0.0106,-0.0144,-0.007,-0.006,-0.0031,-0.0029,-0.0018,-0.0015,0.0056,0.0057,0.0057,0.001,0,0,0,0,0,0,-0.0244,-0.0241,-0.0247,-0.0216,-0.021,-0.0201,-0.0177,-0.017,-0.0161,-0.0157,-0.011,-0.0101,-0.0068,-0.0036,-0.0028,-0.0024,-0.0012,0.0056,0.0056,0.0057,0.0011,0.0009,0.0006,0,0,0,0,0,-0.0245,-0.0256,-0.0248,-0.0245,-0.0219,-0.0202,-0.0197,-0.0171,-0.0161,-0.0161,-0.0126,-0.0103,-0.0028,-0.0033,-0.0024,-0.0019,0.0056,0.0056,0.0057,0.0013,0.0009,0.0006,0,0,0,0,0,0,-0.0274,-0.0252,-0.0243,-0.0247,-0.0229,-0.0195,-0.0196,-0.0178,-0.0151,-0.0149,-0.0102,-0.0091,-0.0065,-0.0037,-0.0043,0.0004,0.0018,0.002,-0.0018,-0.0021,-0.0024,-0.0033,-0.001,0,0,0,0,0,-0.0284,-0.0287,-0.026,-0.0266,-0.0259,-0.023,-0.0221,-0.0205,-0.0176,-0.0164,-0.013,-0.0091,-0.0057,-0.0036,-0.0005,0.002,0.0056,0.003,0.0028,0.0025,0.0025,0.0081,0.0083,0.0058,0.0058,0.0058,0,0,-0.0298,-0.0287,-0.0289,-0.0272,-0.0257,-0.0254,-0.0223,-0.0217,-0.0209,-0.0159,-0.014,-0.0103,-0.0054,-0.0025,-0.001,-0.0,0.005,0.0025,0.0023,0.0024,0.0081,0.0084,0.0086,0.0058,0.0058,0.0058,0,0,-0.0327,-0.0316,-0.0329,-0.0317,-0.0301,-0.0279,-0.028,-0.0249,-0.0231,-0.021,-0.0169,-0.013,-0.0085,-0.0041,-0.0015,-0.0013,0.003,-0.0005,-0.002,0.0034,0.0036,0.0039,0.0083,0.009,-0.0002,-0.0002,-0.0002,0,-0.0346,-0.0356,-0.033,-0.0337,-0.0334,-0.0294,-0.0304,-0.0279,-0.0241,-0.0223,-0.0213,-0.0129,-0.009,-0.0038,-0.0037,-0.0018,0.0014,-0.0014,0.003,0.0034,0.0037,0.0081,0.009,-0.0004,-0.0004,-0.0004,-0.0004,0,-0.038,-0.039,-0.0397,-0.0391,-0.0381,-0.0385,-0.0349,-0.0333,-0.0307,-0.0273,-0.0226,-0.0166,-0.0114,-0.0093,-0.0064,-0.0016,-0.0001,0.0015,0.0036,0.0037,0.0083,0.0093,-0.0007,-0.0007,-0.0006,-0.0005,0,0,-0.0417,-0.0422,-0.0426,-0.0436,-0.0413,-0.041,-0.0394,-0.0364,-0.0351,-0.03,-0.0271,-0.0201,-0.0162,-0.0129,-0.008,-0.0027,0.0026,-0.0,0.0004,0.0038,0.0139,0.0119,0.0128,0.0049,0.0051,0.0052,0.016,0,-0.0454,-0.0491,-0.0473,-0.0499,-0.0513,-0.0472,-0.0462,-0.0425,-0.0384,-0.0344,-0.0262,-0.0219,-0.0176,-0.0152,-0.0092,-0.0004,0.005,-0.0005,0.0138,0.0142,0.012,0.0138,0.0057,0.0167,0.0169,0.0171,0.0172,0,-0.0492,-0.0513,-0.0554,-0.0559,-0.056,-0.0566,-0.0541,-0.0523,-0.0448,-0.0413,-0.0344,-0.0279,-0.0188,-0.0159,-0.0003,-0.0042,0.0041,0.0112,0.0118,0.0122,0.0139,0.0169,0.019,0.0189,0.0187,0.0186,0.0185,0,-0.0538,-0.0564,-0.0603,-0.0607,-0.0605,-0.0613,-0.0604,-0.055,-0.0533,-0.0454,-0.0427,-0.0311,-0.025,-0.0132,0.0013,0.0006,0.0183,0.0193,0.0257,0.0256,0.0263,0.0259,0.0302,0.0302,0.0302,0.0301,0.0301,0,-0.058,-0.061,-0.0636,-0.0658,-0.0699,-0.0672,-0.0689,-0.0657,-0.0605,-0.0577,-0.0471,-0.0416,-0.024,-0.0115,0.0007,0.016,0.0182,0.0258,0.0286,0.0239,0.0232,0.0269,0.0264,0.0305,0.0304,0.0304,0.0303,0,-0.062,-0.0637,-0.0688,-0.0714,-0.0727,-0.0756,-0.0761,-0.0759,-0.0703,-0.0662,-0.0639,-0.0483,-0.0317,-0.0142,0.0066,0.0148,0.0297,0.0346,0.0282,0.0303,0.0334,0.0325,0.0422,0.0422,0.0422,0.0422,0.0423,0,-0.0641,-0.0676,-0.0742,-0.0781,-0.0801,-0.0838,-0.0858,-0.082,-0.0805,-0.0698,-0.0673,-0.0508,-0.039,-0.0102,0.0068,0.0299,0.0328,0.0392,0.0366,0.0331,0.0348,0.0339,0.033,0.0423,0.0423,0.0423,0.0423,0,-0.0679,-0.071,-0.0752,-0.0843,-0.089,-0.0927,-0.0944,-0.0941,-0.0873,-0.0829,-0.0679,-0.0515,-0.0322,-0.01,0.0083,0.0245,0.034,0.0395,0.0395,0.0371,0.0333,0.0348,0.0339,0.0424,0.0424,0.0424,0.0423,0,-0.0701,-0.0745,-0.0811,-0.0881,-0.0949,-0.0984,-0.0993,-0.0947,-0.0915,-0.0785,-0.0737,-0.0514,-0.0375,-0.0127,0.0038,0.0197,0.0229,0.0261,0.0269,0.027,0.0187,0.0114,0.0166,0,0,0,0,0,-0.0713,-0.0763,-0.0841,-0.0912,-0.0981,-0.101,-0.1028,-0.1015,-0.0956,-0.0855,-0.0787,-0.06,-0.0319,-0.0189,-0.0032,0.0016,0.0231,0.0199,0.0264,0.0428,0.0427,0.0353,0,0,0,0,0,0,-0.0721,-0.0797,-0.0838,-0.0918,-0.0967,-0.1024,-0.1035,-0.1,-0.0925,-0.0845,-0.0685,-0.0583,-0.0306,-0.0401,-0.0031,0.0017,0.0072,0.034,0.0343,0.0428,0.0427,0.0427,0.035,0,0,0,0,0]}]]